Location: Castillon
(43.0896°N, 0.2156°E)
Time: 09:58:12
(UTC+00:00)

Cosmos 1544 Rocket - Pass Details

Date: 30 October 2021
Orbit: 603 x 631 km, 82.5° (Epoch: 08 December)

Event Time Altitude Azimuth Distance (km) Brightness Sun altitude
Rises 03:13:07 0° 9° (N) 2,898 7.3 -36.5°
Reaches altitude 10° 03:16:14 10° 32° (NNE) 1,980 6.6 -35.9°
Maximum altitude 03:18:50 15° 69° (ENE) 1,647 6.4 -35.5°
Drops below altitude 10° 03:21:24 10° 105° (ESE) 1,962 6.7 -35.0°
Sets 03:24:26 0° 129° (SE) 2,855 7.4 -34.5°
